Wind_Speed
25 25 25 25 26 26 26 26 26 27 28 29 29 29 30 30 30 30 30 31 31 30 30 30 29 29 29 28 28 28 28 27 27 26 26 25 25 24 23 23 22 22 21
26 26 27 27 28 28 28 29 29 30 30 31 32 33 33 33 33 33 33 33 34 34 34 33 33 32 32 31 31 30 30 30 29 29 28 28 27 27 26 25 25 24 23
28 28 29 29 30 31 31 31 32 33 33 34 35 35 36 36 36 36 36 36 36 37 37 37 36 36 35 35 34 33 33 32 32 31 31 30 30 29 29 28 27 27 26
31 31 31 31 32 33 33 34 35 36 36 37 38 38 39 39 40 40 40 40 40 40 40 40 40 39 39 38 38 37 36 35 35 34 34 33 33 32 32 31 30 30 29
33 33 33 34 35 35 35 36 37 38 39 40 41 41 42 42 43 43 43 43 43 43 43 43 43 43 42 42 41 41 40 39 38 38 37 37 36 36 35 35 34 33 32
36 36 36 37 37 37 38 39 40 40 41 42 43 44 44 45 45 45 46 46 46 46 46 46 46 45 45 45 44 44 43 42 42 41 41 40 40 39 39 38 37 36 35
38 38 38 39 39 40 41 41 42 43 44 45 46 46 47 47 47 48 49 49 49 49 49 49 48 48 48 48 47 46 46 45 45 44 44 43 43 42 42 41 40 39 38
40 40 40 41 41 42 43 44 45 46 46 47 48 49 49 49 49 50 51 51 52 52 51 51 50 50 49 49 48 48 48 47 47 46 46 45 45 45 44 44 43 42 41
41 42 42 43 43 44 45 45 46 47 48 49 50 51 52 52 52 52 53 53 53 53 52 51 51 51 51 51 50 50 49 49 49 48 48 47 46 46 46 45 45 44 44
42 43 44 44 45 45 46 47 48 48 49 50 51 52 53 54 54 54 54 54 54 54 53 54 53 53 53 53 53 52 51 51 50 49 48 47 46 46 46 46 46 46 46
43 44 45 45 46 47 47 47 48 49 50 51 52 52 53 54 55 56 56 55 55 55 56 55 55 54 55 54 55 54 52 52 52 51 49 48 47 48 47 47 48 48 47
44 44 45 46 46 47 47 47 48 49 50 51 52 53 53 54 54 55 56 56 56 56 55 55 54 54 54 54 54 53 52 50 49 49 49 50 49 49 48 48 49 49 49
44 44 45 45 45 46 46 47 48 48 49 50 50 51 52 53 54 55 56 56 56 55 54 53 53 53 53 53 52 51 51 53 51 50 51 52 51 49 49 49 49 49 50
44 44 44 44 44 45 45 46 46 46 47 48 48 49 51 53 54 54 55 55 55 53 52 51 50 49 49 50 50 50 50 51 52 52 49 49 50 50 49 48 48 48 49
43 43 43 43 43 43 44 44 44 44 45 46 47 49 51 51 52 52 52 52 52 50 48 48 48 48 47 46 47 47 49 49 51 52 50 48 49 49 50 49 49 49 49
42 43 42 42 42 42 42 42 42 43 44 45 46 47 48 47 47 48 48 47 47 47 45 44 45 45 44 44 43 44 45 46 47 49 50 49 49 51 50 50 51 50 50
41 41 41 40 40 40 40 40 40 41 43 43 44 44 43 43 43 44 43 42 42 42 41 40 41 41 41 42 41 42 44 45 46 48 48 48 49 49 50 50 51 52 52
39 39 38 38 38 38 38 38 39 40 41 41 41 40 40 40 41 41 39 38 37 37 37 37 37 37 38 38 40 41 42 44 45 47 48 49 49 50 50 51 52 52 53
36 36 35 35 35 36 36 37 37 38 39 38 37 38 38 37 37 36 35 35 35 34 34 35 35 35 36 36 38 39 41 42 44 45 46 48 49 49 50 51 51 51 52
33 33 33 33 34 34 35 35 36 36 36 35 35 35 34 34 33 32 32 32 32 31 31 31 32 33 34 35 37 39 40 42 43 45 46 47 48 49 50 51 51 51 52
31 32 32 32 32 33 33 34 34 34 33 33 33 32 32 32 31 30 29 29 29 29 29 30 31 32 33 34 36 38 40 42 43 45 46 48 48 49 50 51 51 52 52
30 30 31 31 31 32 32 33 33 32 32 32 31 31 31 30 30 29 29 29 29 29 29 30 32 33 34 36 37 39 41 43 45 46 47 49 50 51 52 53 53 53 53
29 29 29 30 30 30 31 31 31 30 30 30 30 30 30 29 29 29 29 29 30 30 31 32 33 34 35 37 39 41 43 45 47 48 49 51 52 53 54 54 54 54 53
28 29 29 29 29 29 29 29 29 29 30 29 30 30 30 30 30 30 30 31 31 32 33 34 35 36 38 39 41 42 44 47 49 50 51 52 53 53 54 54 53 53 53
27 27 28 28 28 28 28 28 29 29 29 29 29 30 30 31 31 31 32 33 33 34 36 37 38 39 40 42 43 45 47 48 50 51 51 51 51 52 52 52 52 51 51
26 26 27 27 27 27 27 28 28 29 29 29 30 31 31 32 32 33 34 35 36 37 38 39 40 41 42 43 45 47 48 49 49 49 49 48 48 47 47 48 48 48 46
Wind_Direction
291 292 293 293 293 292 292 292 292 291 290 289 289 288 288 287 287 286 286 285 284 283 282 281 281 282 282 281 282 282 282 282 282 282 282 282 282 281 281 281 280 280 280
289 290 291 291 291 291 292 292 291 291 291 290 289 288 288 287 286 285 285 284 283 282 280 279 279 279 279 279 279 279 280 280 280 280 280 280 279 279 278 277 277 277 277
286 287 288 289 290 291 291 291 291 291 290 290 289 288 288 287 286 285 284 283 282 281 280 279 278 277 277 277 277 277 277 277 277 277 277 277 277 277 276 275 275 275 275
284 285 287 287 288 289 290 291 291 291 290 290 289 288 288 287 286 285 284 283 282 281 280 279 277 277 276 275 275 275 275 275 275 274 275 275 275 275 275 275 274 274 274
283 284 286 287 288 289 290 290 290 290 290 289 289 288 288 287 286 285 285 283 282 281 280 278 277 276 275 275 274 274 273 273 273 273 273 273 273 273 273 274 273 273 272
282 284 285 286 288 289 289 289 290 290 290 289 289 289 288 287 287 286 285 283 282 281 280 279 277 276 275 274 273 273 272 272 272 272 272 273 273 272 272 272 272 272 272
281 283 284 286 287 288 289 290 290 290 290 290 289 289 289 289 289 287 286 284 283 282 281 279 278 277 275 274 273 272 272 271 271 271 271 272 272 271 271 271 271 271 271
281 282 284 285 286 287 288 289 290 290 290 290 290 289 289 289 289 288 286 285 284 283 282 280 278 277 276 275 273 272 271 270 271 271 271 272 271 270 270 270 270 270 270
280 281 283 284 285 287 288 289 289 290 290 290 290 290 290 289 288 287 287 286 285 283 282 280 278 276 275 274 272 271 270 270 271 270 270 270 270 270 269 269 270 270 270
280 282 283 284 286 287 288 288 289 290 290 290 290 290 290 290 289 288 287 286 284 283 280 279 277 275 274 272 271 270 269 269 270 269 269 269 269 269 270 270 270 270 270
279 281 283 284 285 287 288 288 289 290 291 291 291 290 290 290 290 289 288 287 285 283 281 279 277 275 273 272 271 269 269 268 267 267 267 270 271 271 271 271 271 270 269
278 280 282 283 285 286 287 288 289 290 291 291 291 291 291 291 290 290 289 288 285 283 281 279 276 274 273 270 270 269 268 268 266 267 269 270 273 273 272 271 271 270 269
278 279 281 283 284 285 286 288 289 290 291 291 292 292 291 292 292 291 290 288 286 284 282 281 277 274 272 269 269 268 267 266 267 269 270 271 273 273 272 273 272 270 268
278 279 281 282 283 285 287 288 289 290 291 292 292 292 293 293 293 293 292 289 287 285 282 281 279 275 273 270 268 268 268 268 268 270 272 272 272 273 274 274 272 272 270
277 279 280 282 284 285 287 288 289 291 293 294 294 294 295 295 295 295 294 291 288 286 283 280 279 276 275 274 271 270 269 270 270 270 272 274 274 275 274 273 274 274 275
276 278 280 282 284 286 287 289 290 292 294 295 295 296 297 297 297 297 297 294 291 288 286 282 280 279 277 278 275 272 271 272 272 273 273 275 275 274 275 275 276 276 276
276 278 279 282 284 286 287 289 291 294 296 297 298 298 300 299 299 299 298 297 294 291 289 286 284 282 280 279 276 273 273 275 275 277 276 276 276 275 276 277 278 277 277
275 277 279 281 284 286 288 290 292 295 297 299 299 300 302 302 301 301 300 299 297 294 291 289 288 285 284 281 280 278 277 278 277 278 277 278 279 280 280 280 280 279 277
275 277 279 281 284 286 289 292 294 297 299 301 301 302 303 304 305 304 303 302 301 298 295 292 291 289 287 285 284 283 282 281 281 280 280 281 281 281 281 281 281 280 278
275 277 280 282 285 288 291 294 296 298 300 302 303 304 305 306 307 308 307 306 304 302 300 297 295 292 291 289 287 286 285 284 284 283 283 283 282 282 282 281 281 280 279
275 278 281 283 286 289 293 296 298 299 300 302 305 306 307 307 308 309 309 308 307 305 303 301 298 296 294 293 291 289 288 287 287 286 286 285 285 284 283 283 282 281 280
276 279 282 284 288 291 294 297 298 299 299 302 304 306 307 308 308 308 309 308 308 307 305 303 301 299 297 295 294 292 291 290 289 288 288 288 287 286 285 284 283 282 281
277 280 283 286 289 292 295 297 298 299 301 303 305 306 306 307 308 308 308 308 308 308 307 305 303 301 299 298 296 294 293 292 291 290 290 289 288 287 286 284 283 282 281
279 282 285 287 289 293 296 297 299 301 302 304 305 306 306 307 307 308 309 309 309 308 308 307 305 303 301 300 299 297 296 295 293 292 291 290 289 288 286 285 283 282 281
280 283 286 288 290 293 295 298 301 302 303 304 306 307 307 308 308 308 308 309 309 308 308 307 306 304 303 302 301 300 299 297 296 294 293 291 290 289 288 286 284 282 282
281 284 286 289 291 293 296 299 301 303 304 305 306 308 308 309 309 309 309 309 309 309 309 308 308 306 305 304 304 303 302 300 298 296 295 293 292 291 289 288 286 285 283
Height
5859 5858 5857 5856 5854 5853 5852 5851 5850 5848 5847 5845 5843 5842 5840 5838 5837 5835 5833 5831 5829 5827 5826 5824 5822 5820 5819 5817 5816 5814 5813 5811 5810 5809 5808 5807 5806 5805 5804 5803 5802 5801 5801
5854 5853 5852 5851 5849 5848 5847 5846 5844 5843 5841 5839 5837 5835 5834 5832 5830 5829 5827 5825 5823 5821 5819 5817 5815 5813 5812 5810 5809 5807 5806 5805 5804 5802 5801 5800 5800 5799 5798 5797 5796 5795 5795
5849 5848 5847 5846 5844 5843 5841 5840 5838 5836 5835 5833 5831 5829 5827 5825 5823 5821 5819 5817 5815 5813 5811 5809 5807 5806 5804 5803 5801 5800 5798 5797 5796 5795 5794 5793 5792 5792 5791 5790 5789 5789 5789
5843 5842 5841 5840 5838 5837 5835 5833 5831 5829 5828 5826 5824 5821 5819 5817 5815 5813 5811 5809 5807 5805 5803 5801 5799 5797 5796 5794 5793 5791 5790 5789 5788 5787 5786 5785 5784 5783 5783 5783 5782 5782 5781
5836 5835 5834 5833 5831 5830 5828 5826 5824 5822 5820 5818 5815 5813 5811 5809 5807 5805 5802 5800 5797 5795 5793 5791 5789 5788 5786 5785 5783 5782 5781 5780 5779 5778 5777 5776 5775 5775 5774 5774 5774 5774 5773
5829 5828 5827 5826 5824 5822 5820 5818 5816 5813 5811 5808 5806 5804 5802 5799 5797 5795 5792 5789 5787 5785 5783 5781 5779 5777 5776 5775 5773 5772 5771 5770 5769 5768 5767 5767 5766 5766 5765 5765 5765 5765 5765
5822 5820 5819 5818 5816 5814 5812 5809 5807 5804 5802 5798 5796 5794 5792 5789 5787 5784 5781 5778 5776 5773 5771 5769 5767 5766 5764 5763 5762 5761 5760 5759 5758 5757 5757 5756 5756 5755 5755 5755 5755 5755 5755
5813 5812 5811 5809 5807 5805 5803 5800 5797 5794 5792 5788 5785 5782 5781 5780 5776 5772 5769 5766 5764 5761 5759 5757 5755 5753 5752 5750 5749 5748 5748 5747 5746 5746 5745 5745 5744 5744 5744 5744 5744 5744 5744
5805 5803 5802 5800 5798 5796 5793 5790 5787 5784 5781 5778 5774 5771 5768 5767 5764 5762 5758 5754 5751 5748 5746 5744 5742 5740 5739 5737 5736 5735 5735 5734 5734 5733 5733 5732 5732 5732 5732 5732 5732 5733 5733
5795 5793 5792 5790 5788 5786 5783 5780 5777 5774 5771 5768 5764 5759 5756 5753 5750 5748 5746 5742 5738 5735 5732 5730 5728 5726 5725 5724 5722 5721 5720 5720 5720 5720 5719 5719 5718 5718 5719 5719 5719 5720 5721
5786 5784 5782 5780 5778 5775 5773 5770 5767 5763 5760 5756 5752 5748 5744 5740 5736 5732 5731 5729 5724 5721 5717 5715 5713 5711 5710 5709 5708 5706 5706 5705 5705 5705 5705 5705 5705 5705 5705 5705 5706 5706 5707
5777 5775 5773 5770 5768 5765 5762 5759 5756 5752 5748 5744 5740 5736 5732 5728 5723 5718 5715 5712 5709 5706 5702 5699 5697 5695 5694 5693 5692 5691 5691 5691 5691 5690 5691 5691 5691 5691 5691 5691 5692 5692 5693
5767 5765 5763 5761 5758 5756 5753 5749 5746 5742 5738 5733 5729 5725 5720 5715 5710 5705 5700 5696 5693 5690 5687 5684 5682 5680 5678 5677 5676 5676 5676 5676 5676 5676 5677 5677 5677 5677 5677 5678 5677 5678 5678
5757 5755 5753 5751 5748 5746 5743 5739 5736 5732 5727 5723 5718 5713 5708 5703 5697 5691 5686 5680 5676 5674 5672 5670 5667 5664 5662 5661 5661 5661 5661 5662 5662 5663 5663 5663 5663 5664 5663 5663 5663 5664 5664
5747 5745 5743 5741 5738 5735 5732 5729 5725 5721 5717 5712 5707 5702 5696 5691 5685 5678 5672 5666 5662 5658 5657 5655 5652 5650 5649 5647 5647 5648 5648 5648 5649 5649 5649 5649 5649 5649 5649 5649 5649 5649 5649
5737 5735 5733 5731 5728 5726 5722 5719 5715 5711 5707 5702 5696 5691 5685 5679 5673 5667 5660 5654 5649 5645 5643 5641 5639 5637 5636 5635 5635 5635 5635 5636 5636 5635 5636 5636 5636 5636 5635 5635 5635 5634 5634
5727 5726 5724 5721 5719 5716 5713 5709 5705 5701 5697 5691 5686 5680 5674 5668 5662 5656 5650 5644 5639 5635 5632 5630 5628 5626 5625 5624 5623 5623 5624 5624 5624 5623 5623 5622 5622 5621 5621 5620 5619 5619 5618
5718 5716 5714 5712 5710 5707 5703 5700 5696 5691 5686 5681 5676 5670 5664 5658 5652 5646 5641 5635 5630 5627 5624 5621 5619 5617 5615 5615 5614 5613 5613 5613 5613 5612 5610 5609 5608 5607 5606 5605 5604 5603 5602
5709 5707 5705 5703 5700 5697 5694 5690 5686 5682 5677 5672 5666 5661 5655 5649 5644 5638 5633 5628 5623 5620 5616 5614 5611 5609 5607 5606 5605 5603 5603 5602 5601 5599 5598 5596 5594 5592 5591 5589 5588 5587 5586
5700 5698 5696 5694 5691 5688 5685 5681 5677 5673 5668 5663 5658 5653 5647 5642 5636 5631 5626 5622 5617 5614 5610 5607 5605 5602 5600 5598 5596 5595 5593 5591 5589 5587 5585 5583 5580 5578 5576 5574 5572 5571 5569
5691 5689 5688 5685 5683 5680 5676 5673 5669 5664 5660 5655 5650 5645 5640 5635 5630 5625 5620 5616 5612 5608 5605 5601 5599 5596 5593 5591 5588 5586 5583 5580 5578 5575 5572 5569 5566 5563 5560 5558 5556 5554 5552
5683 5681 5679 5677 5674 5671 5668 5664 5660 5656 5652 5647 5643 5638 5633 5628 5624 5619 5615 5611 5607 5603 5599 5595 5592 5589 5586 5583 5579 5576 5573 5570 5566 5564 5559 5555 5551 5548 5544 5542 5539 5537 5535
5675 5673 5671 5669 5666 5663 5659 5656 5652 5648 5644 5640 5635 5631 5627 5622 5617 5613 5609 5605 5601 5596 5593 5589 5585 5581 5577 5574 5570 5566 5562 5557 5553 5549 5545 5540 5536 5532 5528 5524 5522 5519 5517
5667 5665 5663 5660 5658 5655 5652 5648 5645 5641 5637 5633 5629 5624 5620 5616 5611 5607 5603 5598 5594 5590 5585 5581 5577 5572 5568 5563 5559 5554 5549 5545 5540 5535 5530 5525 5519 5515 5510 5507 5504 5502 5500
5659 5657 5655 5653 5650 5647 5644 5641 5637 5634 5630 5626 5622 5617 5613 5609 5604 5600 5596 5591 5586 5582 5577 5572 5567 5562 5557 5552 5547 5542 5537 5531 5525 5519 5514 5509 5504 5499 5493 5489 5486 5484 5482
5651 5650 5647 5645 5643 5640 5637 5633 5630 5626 5623 5619 5615 5610 5606 5602 5597 5592 5588 5583 5578 5573 5568 5563 5557 5552 5546 5541 5535 5529 5523 5517 5510 5505 5499 5494 5488 5484 5479 5473 5469 5467 5465